Regional Weather Roundup
Issued by NWS Glasgow, MT

Home | Current Version | Previous Version | Text Only | Print | Product List | Glossary On
Versions: 1 2 3 4 5 6 7 8 9 10 11 12 13 14 15 16 17 18 19 20 21 22 23 24 25 26 27 28 29 30 31 32 33 34 35 36 37 38 39 40 41 42 43 44 45 46 47 48 49 50
219
ASUS45 KGGW 050615
RWRGGW
HOURLY REGIONAL WEATHER ROUNDUP FOR NORTHEAST MONTANA
NATIONAL WEATHER SERVICE GLASGOW MONTANA
1200 AM MDT THU MAY 05 2016

NOTE: "FAIR" INDICATES FEW OR NO CLOUDS BELOW 12,000 FEET WITH NO
SIGNIFICANT WEATHER AND/OR OBSTRUCTIONS TO VISISBILITY.

NORTHEAST MONTANA


CITY           SKY/WX    TMP DP  RH WIND       PRES   REMARKS
GLASGOW        CLOUDY    60  40  47 SE13      29.82F
6HR MIN TEMP:  60; 6HR MAX TEMP:  84;

PLENTYWOOD       N/A     63  35  35 E3          N/A
WOLF POINT     CLEAR     53  45  74 CALM      29.83F
JORDAN           N/A     57  43  59 CALM      29.85F
SIDNEY         CLEAR     57  41  54 SW5       29.87S
GLENDIVE       CLEAR     63  45  51 S14       29.93R
MALTA            N/A     61  42  49 E3G12       N/A
OPHEIM           N/A     64  32  29 CALM      29.60F

FORT PECK REPORTS


CITY           SKY/WX    TMP DP  RH WIND       PRES   REMARKS
FORT PECK        N/A     62  43  49 SE9         N/A
THE PINES        N/A     65  42  43 S3          N/A

SOUTHEAST MONTANA


CITY           SKY/WX    TMP DP  RH WIND       PRES   REMARKS
BILLINGS       CLOUDY    64  41  42 S9        29.91F
MILES CITY     CLOUDY    64  43  46 SE13      29.89S
BAKER          CLEAR     61  41  47 S18       29.94F
LIVINGSTON     CLOUDY    51  35  54 NW7       29.97S

CENTRAL MONTANA


CITY           SKY/WX    TMP DP  RH WIND       PRES   REMARKS
HAVRE          CLEAR     52  44  74 SW6       29.82S
LEWISTOWN      CLOUDY    53  36  52 E5        29.92S
GREAT FALLS    CLOUDY    57  37  47 CALM      29.89S
CUT BANK       CLOUDY    53  38  56 W6        29.89S
HELENA         CLOUDY    59  35  40 E3        29.91S
BUTTE          CLOUDY    54  35  48 CALM      30.00S
BOZEMAN        CLOUDY    53  35  50 S8        29.96F

WESTERN MONTANA


CITY           SKY/WX    TMP DP  RH WIND       PRES   REMARKS
MISSOULA       MOCLDY    54  40  59 CALM      29.87F
KALISPELL      NOT AVBL

NORTH DAKOTA


CITY           SKY/WX    TMP DP  RH WIND       PRES   REMARKS
WILLISTON      CLEAR     59  42  53 SW6       29.86S
DICKINSON      CLEAR     54  41  61 S10       29.93S
MINOT          CLEAR     70  42  36 SW8       29.86S
BISMARCK       CLEAR     62  46  55 S9        29.95S

SOUTHERN SASKATCHEWAN


CITY           SKY/WX    TMP DP  RH WIND       PRES   REMARKS
REGINA         CLEAR     54  36  50 SW9       29.78S
ESTEVAN        CLEAR     55  39  54 S10       29.82S
SWIFT CURRENT  CLEAR     61  37  41 S14       29.79S





USA.gov is the U.S. government's official web portal to all federal, state and local government web resources and services.